Hourly Data Report for December 19, 2006

TORONTO CITY
ONTARIO

43°40'00.000" N
79°24'00.000" W
112.50 m
6158355
71508
XTO

Download Data

Hourly Data (December 2006)
Hourly Data Report for December 19, 2006
TIME
LST
Temp Definition
°C
Dew Point Definition
°C
Rel Hum Definition
%
Precip. Amount Definition
mm

Wind Dir Definition
10's deg

Wind Spd Definition
km/h
Visibility Definition
km
Stn Press Definition
kPa
Hmdx Definition


Wind Chill Definition


Weather Definition


00:00 3.1 -4.0 60   LegendMM LegendMM   101.31     LegendNANA
01:00 3.0 -3.8 61   LegendMM LegendMM   101.29     LegendNANA
02:00 2.6 -4.2 61   LegendMM LegendMM   101.31     LegendNANA
03:00 2.3 -4.3 62   LegendMM LegendMM   101.28     LegendNANA
04:00 2.1 -4.5 62   LegendMM LegendMM   101.28     LegendNANA
05:00 2.3 -4.3 62   LegendMM LegendMM   101.22     LegendNANA
06:00 2.5 -4.0 62   LegendMM LegendMM   101.26     LegendNANA
07:00 2.6 -3.6 64   LegendMM LegendMM   101.28     LegendNANA
08:00 2.7 -4.0 61   LegendMM LegendMM   101.26     LegendNANA
09:00 2.9 -4.0 60   LegendMM LegendMM   101.29     LegendNANA
10:00 3.3 -4.1 58   LegendMM LegendMM   101.30     LegendNANA
11:00 3.6 -3.7 59   LegendMM LegendMM   101.27     LegendNANA
12:00 4.5 -4.6 52   LegendMM LegendMM   101.20     LegendNANA
13:00 4.8 -4.6 51   LegendMM LegendMM   101.17     LegendNANA
14:00 4.6 -4.2 53   LegendMM LegendMM   101.15     LegendNANA
15:00 4.4 -4.3 53   LegendMM LegendMM   101.20     LegendNANA
16:00 4.1 -4.8 52   LegendMM LegendMM   101.25     LegendNANA
17:00 3.5 -5.1 53   LegendMM LegendMM   101.31     LegendNANA
18:00 3.2 -4.4 57   LegendMM LegendMM   101.37     LegendNANA
19:00 2.4 -3.6 65   LegendMM LegendMM   101.41     LegendNANA
20:00 2.2 -3.0 68   LegendMM LegendMM   101.46     LegendNANA
21:00 1.6 -3.8 67   LegendMM LegendMM   101.48     LegendNANA
22:00 1.1 -3.5 71   LegendMM LegendMM   101.46     LegendNANA
23:00 0.9 -3.1 75   LegendMM LegendMM   101.45     LegendNANA

Notes on Data Quality.

Legend

  • E = Estimated
  • M = Missing
  • NA = Not Available*
  • [empty] = Indicates an unobserved value
Date modified: